Yankton, SD

3:56 AM CST on February 24, 2017 (GMT -0600)
Gurney Municipal

Weather History for KYKN - February, 2015

Change the Weather History Date:

Thursday, February 12, 2015

  Actual Average Record
Temperature  
Mean Temperature 12 °F -  
Max Temperature 21 °F 31 °F 65 °F (1977)
Min Temperature 3 °F 9 °F -25 °F (1981)
Degree Days  
Heating Degree Days 53    
Moisture  
Dew Point 1 °F    
Average Humidity 62    
Maximum Humidity 78    
Minimum Humidity 46    
Precipitation  
Precipitation 0.00 in - - ()
Sea Level Pressure  
Sea Level Pressure 30.48 in    
Wind  
Wind Speed 12 mph (SSE)    
Max Wind Speed 18 mph    
Max Gust Speed 22 mph    
Visibility 10 miles    
Events      
Averages and records for this station are not official NWS values.
T = Trace of Precipitation, MM = Missing Value Source: NWS Daily Summary

Daily Weather History Graph

Daily Weather History Graph

Search for Another Location

Airport or City:

Trip Planner

Search our weather history database for the weather conditions in past years. The results will help you decide how hot, cold, wet, or windy it might be!

Date:

Astronomy

Feb. 12, 2015 Rise Set
Actual Time 7:31 AM CST 5:56 PM CST
Civil Twilight 7:02 AM CST 6:26 PM CST
Nautical Twilight 6:28 AM CST 6:59 PM CST
Astronomical Twilight 5:55 AM CST 7:32 PM CST
Moon 1:36 AM CST (2/12) 11:52 AM CST (2/12)
Length of Visible Light 11h 24m
Length of Day
10h 25m
Last Quarter, 44% of the Moon is Illuminated
Feb 12
Last Quarter
Feb 18
New
Feb 25
First Quarter
Mar 5
Full
Mar 13
Last Quarter

Hourly Weather History & Observations

Time (CST) Temp. Windchill Dew Point Humidity Pressure Visibility Wind Dir Wind Speed Gust Speed Precip Events Conditions
12:15 AM 6.8 °F -11.8 °F -4.0 °F 61% 30.64 in 10.0 mi NNW 17.3 mph 21.9 mph N/A   Clear
12:35 AM 6.8 °F -10.0 °F -2.2 °F 67% 30.64 in 10.0 mi NNW 13.8 mph - N/A   Clear
12:55 AM 6.8 °F -11.8 °F -5.8 °F 56% 30.64 in 10.0 mi NNW 17.3 mph 21.9 mph N/A   Clear
1:15 AM 6.8 °F -10.7 °F -2.2 °F 67% 30.65 in 10.0 mi NW 15.0 mph - N/A   Clear
1:35 AM 5.0 °F -13.6 °F -2.2 °F 72% 30.65 in 10.0 mi NNW 16.1 mph - N/A   Clear
1:55 AM 5.0 °F -12.3 °F -4.0 °F 66% 30.66 in 10.0 mi NNW 13.8 mph - N/A   Clear
2:15 AM 5.0 °F -11.6 °F -4.0 °F 66% 30.66 in 10.0 mi NNW 12.7 mph 19.6 mph N/A   Clear
2:35 AM 3.2 °F -15.9 °F -5.8 °F 66% 30.66 in 10.0 mi NNW 16.1 mph - N/A   Clear
2:55 AM 3.2 °F -17.1 °F -5.8 °F 66% 30.65 in 10.0 mi NNW 18.4 mph - N/A   Clear
3:15 AM 3.2 °F -14.6 °F -4.0 °F 72% 30.66 in 10.0 mi NNW 13.8 mph - N/A   Clear
3:35 AM 3.2 °F -15.3 °F -4.0 °F 72% 30.66 in 10.0 mi NNW 15.0 mph - N/A   Clear
3:55 AM 3.2 °F -10.3 °F -2.2 °F 78% 30.66 in 10.0 mi NNW 8.1 mph - N/A   Clear
4:15 AM 3.2 °F -9.1 °F -4.0 °F 72% 30.65 in 10.0 mi NNW 6.9 mph - N/A   Clear
4:35 AM 3.2 °F -10.3 °F -4.0 °F 72% 30.65 in 10.0 mi NNW 8.1 mph - N/A   Clear
4:55 AM 3.2 °F -11.3 °F -2.2 °F 78% 30.65 in 10.0 mi NW 9.2 mph - N/A   Clear
5:15 AM 3.2 °F -9.1 °F -4.0 °F 72% 30.66 in 10.0 mi NW 6.9 mph - N/A   Clear
5:35 AM 3.2 °F -7.8 °F -2.2 °F 78% 30.65 in 10.0 mi NNW 5.8 mph - N/A   Clear
5:55 AM 3.2 °F -9.1 °F -4.0 °F 72% 30.65 in 10.0 mi NNW 6.9 mph - N/A   Clear
6:15 AM 3.2 °F -9.1 °F -2.2 °F 78% 30.65 in 10.0 mi North 6.9 mph - N/A   Clear
6:35 AM 3.2 °F -10.3 °F -2.2 °F 78% 30.65 in 10.0 mi NW 8.1 mph - N/A   Clear
6:55 AM 3.2 °F -9.1 °F -2.2 °F 78% 30.66 in 10.0 mi NW 6.9 mph - N/A   Clear
7:15 AM 3.2 °F -7.8 °F -4.0 °F 72% 30.65 in 10.0 mi NNW 5.8 mph - N/A   Clear
7:35 AM 3.2 °F -7.8 °F -2.2 °F 78% 30.65 in 10.0 mi North 5.8 mph - N/A   Clear
7:55 AM 3.2 °F -6.2 °F -2.2 °F 78% 30.64 in 10.0 mi North 4.6 mph - N/A   Clear
8:15 AM 3.2 °F -6.2 °F -2.2 °F 78% 30.64 in 10.0 mi WNW 4.6 mph - N/A   Clear
8:35 AM 3.2 °F -6.2 °F -2.2 °F 78% 30.64 in 10.0 mi WNW 4.6 mph - N/A   Clear
8:55 AM 3.2 °F - -4.0 °F 72% 30.63 in 10.0 mi Calm Calm - N/A   Clear
9:15 AM 3.2 °F - -2.2 °F 78% 30.63 in 10.0 mi Calm Calm - N/A   Clear
9:35 AM 5.0 °F - -2.2 °F 72% 30.62 in 10.0 mi Calm Calm - N/A   Clear
9:55 AM 5.0 °F - -2.2 °F 72% 30.61 in 10.0 mi Calm Calm - N/A   Clear
10:15 AM 6.8 °F - -2.2 °F 67% 30.62 in 10.0 mi Calm Calm - N/A   Clear
10:35 AM 6.8 °F -0.1 °F -0.4 °F 72% 30.61 in 10.0 mi ESE 3.5 mph - N/A   Clear
10:55 AM 8.6 °F 2.0 °F -2.2 °F 62% 30.59 in 10.0 mi SE 3.5 mph - N/A   Clear
11:15 AM 8.6 °F - 1.4 °F 73% 30.58 in 10.0 mi Calm Calm - N/A   Clear
11:35 AM 10.4 °F -0.4 °F -0.4 °F 62% 30.56 in 10.0 mi SE 6.9 mph - N/A   Clear
11:55 AM 10.4 °F - 1.4 °F 67% 30.55 in 10.0 mi Calm Calm - N/A   Clear
12:15 PM 12.2 °F 1.7 °F -0.4 °F 57% 30.55 in 10.0 mi SE 6.9 mph - N/A   Clear
12:35 PM 12.2 °F -0.2 °F 1.4 °F 62% 30.52 in 10.0 mi South 9.2 mph - N/A   Clear
12:55 PM 14.0 °F 2.0 °F 1.4 °F 57% 30.51 in 10.0 mi South 9.2 mph - N/A   Clear
1:15 PM 15.8 °F 7.2 °F 1.4 °F 53% 30.50 in 10.0 mi South 5.8 mph - N/A   Clear
1:35 PM 15.8 °F 2.7 °F -0.4 °F 49% 30.47 in 10.0 mi SE 11.5 mph - N/A   Clear
1:55 PM 15.8 °F 2.7 °F 1.4 °F 53% 30.45 in 10.0 mi SSE 11.5 mph - N/A   Partly Cloudy
2:15 PM 17.6 °F 4.3 °F 1.4 °F 49% 30.44 in 10.0 mi SSE 12.7 mph - N/A   Partly Cloudy
2:35 PM 17.6 °F 3.2 °F 3.2 °F 53% 30.42 in 10.0 mi SE 15.0 mph - N/A   Scattered Clouds
2:55 PM 19.4 °F 5.5 °F 3.2 °F 49% 30.40 in 10.0 mi SE 15.0 mph - N/A   Partly Cloudy
3:15 PM 19.4 °F 5.0 °F 1.4 °F 46% 30.39 in 10.0 mi SSE 16.1 mph - N/A   Clear
3:35 PM 19.4 °F 5.5 °F 3.2 °F 49% 30.39 in 10.0 mi SSE 15.0 mph - N/A   Clear
3:55 PM 19.4 °F 6.0 °F 3.2 °F 49% 30.38 in 10.0 mi SSE 13.8 mph - N/A   Clear
4:15 PM 19.4 °F 5.0 °F 1.4 °F 46% 30.36 in 10.0 mi SSE 16.1 mph - N/A   Clear
4:35 PM 19.4 °F 5.0 °F 3.2 °F 49% 30.35 in 10.0 mi SSE 16.1 mph 21.9 mph N/A   Partly Cloudy
4:55 PM 19.4 °F 5.0 °F 5.0 °F 54% 30.34 in 10.0 mi SE 16.1 mph - N/A   Mostly Cloudy
5:15 PM 19.4 °F 4.5 °F 3.2 °F 49% 30.33 in 10.0 mi SSE 17.3 mph - N/A   Scattered Clouds
5:35 PM 19.4 °F 6.0 °F 3.2 °F 49% 30.33 in 10.0 mi SSE 13.8 mph - N/A   Partly Cloudy
5:55 PM 19.4 °F 5.0 °F 3.2 °F 49% 30.33 in 10.0 mi SSE 16.1 mph - N/A   Clear
6:15 PM 21.2 °F 8.3 °F 3.2 °F 46% 30.32 in 10.0 mi South 13.8 mph - N/A   Clear
6:35 PM 21.2 °F 8.3 °F 3.2 °F 46% 30.31 in 10.0 mi South 13.8 mph 20.7 mph N/A   Clear
6:55 PM 21.2 °F 8.9 °F 3.2 °F 46% 30.31 in 10.0 mi South 12.7 mph - N/A   Clear
7:15 PM 19.4 °F 5.0 °F 1.4 °F 46% 30.30 in 10.0 mi South 16.1 mph - N/A   Clear
7:35 PM 21.2 °F 7.8 °F 5.0 °F 50% 30.29 in 10.0 mi SSE 15.0 mph - N/A   Clear
7:55 PM 21.2 °F 7.3 °F 6.8 °F 54% 30.29 in 10.0 mi SSE 16.1 mph 19.6 mph N/A   Scattered Clouds
8:15 PM 21.2 °F 9.5 °F 6.8 °F 54% 30.28 in 10.0 mi South 11.5 mph - N/A   Mostly Cloudy
8:35 PM 21.2 °F 7.3 °F 6.8 °F 54% 30.27 in 10.0 mi SSE 16.1 mph - N/A   Mostly Cloudy
8:55 PM 21.2 °F 6.8 °F 6.8 °F 54% 30.25 in 10.0 mi SSE 17.3 mph - N/A   Partly Cloudy
9:15 PM 21.2 °F 7.3 °F 6.8 °F 54% 30.24 in 10.0 mi SSE 16.1 mph - N/A   Clear
9:35 PM 19.4 °F 6.6 °F 6.8 °F 58% 30.23 in 10.0 mi SSE 12.7 mph - N/A   Clear
9:55 PM 19.4 °F 6.0 °F 6.8 °F 58% 30.22 in 10.0 mi SSE 13.8 mph - N/A   Clear
10:15 PM 19.4 °F 6.6 °F 8.6 °F 63% 30.21 in 10.0 mi SSE 12.7 mph - N/A   Clear
10:35 PM 19.4 °F 7.2 °F 8.6 °F 63% 30.21 in 10.0 mi SSE 11.5 mph - N/A   Clear
10:55 PM 19.4 °F 7.2 °F 8.6 °F 63% 30.20 in 10.0 mi SSE 11.5 mph - N/A   Clear
11:15 PM 19.4 °F 8.6 °F 8.6 °F 63% 30.19 in 10.0 mi SSE 9.2 mph - N/A   Clear
11:35 PM 19.4 °F 8.6 °F 8.6 °F 63% 30.19 in 10.0 mi SE 9.2 mph - N/A   Clear
11:55 PM 19.4 °F 10.4 °F 8.6 °F 63% 30.19 in 10.0 mi SE 6.9 mph - N/A   Clear